When you browse on this site, cookies collect data to enhance your experience and personalize the content and advertising you see.
Visit our Privacy Policy to learn more. By continuing to use the site, you agree to this use of cookies and data.
  • Em Portugal
  • Lista de países
  • Para 7 dias
  • Temperatura da água
  • Mapa do tempo
  • Widgets de tempo
  • user-avatar
    Iniciar Sessão

    Previsão horária em Figueira da Foz

    Hoje, 24 Fevereiro, Segunda-feira

    Tempo Temperatura Precipitação Vento Pressão Humidade
    00:00 +13°C° 0 mm 1 m/s 771 mmHg 71%
    01:00 +12°C° 0 mm 1 m/s 771 mmHg 73%
    02:00 +12°C° 0 mm 1 m/s 770 mmHg 74%
    03:00 +12°C° 0 mm 1 m/s 770 mmHg 75%
    04:00 +11°C° 0 mm 1 m/s 770 mmHg 75%
    05:00 +11°C° 0 mm 1 m/s 770 mmHg 75%
    06:00 +12°C° 0 mm 1 m/s 770 mmHg 71%
    07:00 +14°C° 0 mm 1 m/s 770 mmHg 68%
    08:00 +15°C° 0 mm 1 m/s 770 mmHg 64%
    09:00 +18°C° 0 mm 1 m/s 770 mmHg 59%
    10:00 +19°C° 0 mm 2 m/s 770 mmHg 53%
    11:00 +21°C° 0 mm 2 m/s 770 mmHg 48%
    12:00 +20°C° 0 mm 3 m/s 769 mmHg 51%
    13:00 +20°C° 0 mm 3 m/s 769 mmHg 54%
    14:00 +19°C° 0 mm 4 m/s 768 mmHg 57%
    15:00 +18°C° 0 mm 4 m/s 768 mmHg 64%
    16:00 +15°C° 0 mm 4 m/s 768 mmHg 72%
    17:00 +14°C° 0 mm 4 m/s 768 mmHg 79%
    18:00 +13°C° 0 mm 4 m/s 768 mmHg 84%
    19:00 +11°C° 0 mm 3 m/s 768 mmHg 89%
    20:00 +10°C° 0 mm 3 m/s 769 mmHg 94%
    21:00 +10°C° 0 mm 2 m/s 769 mmHg 94%
    22:00 +10°C° 0 mm 2 m/s 769 mmHg 94%
    23:00 +10°C° 0 mm 1 m/s 769 mmHg 94%

    Amanhã, 25 Fevereiro, Terça-feira

    Tempo Temperatura Precipitação Vento Pressão Humidade
    00:00 +9°C° 0 mm 2 m/s 769 mmHg 94%
    01:00 +9°C° 0 mm 2 m/s 768 mmHg 94%
    02:00 +9°C° 0 mm 2 m/s 768 mmHg 94%
    03:00 +9°C° 0 mm 2 m/s 768 mmHg 94%
    04:00 +8°C° 0 mm 2 m/s 768 mmHg 94%
    05:00 +8°C° 0 mm 2 m/s 768 mmHg 94%
    06:00 +9°C° 0 mm 2 m/s 768 mmHg 91%
    07:00 +12°C° 0 mm 2 m/s 768 mmHg 87%
    08:00 +13°C° 0 mm 2 m/s 768 mmHg 84%
    09:00 +13°C° 0 mm 2 m/s 768 mmHg 83%
    10:00 +14°C° 0 mm 2 m/s 768 mmHg 81%
    11:00 +14°C° 0 mm 2 m/s 768 mmHg 80%
    12:00 +13°C° 0.2 mm 3 m/s 767 mmHg 83%
    13:00 +13°C° 0.2 mm 3 m/s 767 mmHg 86%
    14:00 +13°C° 0.2 mm 4 m/s 767 mmHg 90%
    15:00 +13°C° 0.1 mm 4 m/s 767 mmHg 90%
    16:00 +13°C° 0.1 mm 4 m/s 767 mmHg 90%
    17:00 +13°C° 0.1 mm 5 m/s 767 mmHg 90%
    18:00 +12°C° 0 mm 5 m/s 767 mmHg 90%
    19:00 +10°C° 0 mm 5 m/s 768 mmHg 90%
    20:00 +9°C° 0 mm 5 m/s 768 mmHg 90%
    21:00 +9°C° 0 mm 5 m/s 768 mmHg 89%
    22:00 +8°C° 0 mm 5 m/s 768 mmHg 89%
    23:00 +8°C° 0 mm 6 m/s 769 mmHg 89%

    Depois de amanhã, 26 Fevereiro, Quarta-feira

    Tempo Temperatura Precipitação Vento Pressão Humidade
    00:00 +8°C° 0 mm 5 m/s 768 mmHg 89%
    01:00 +7°C° 0 mm 5 m/s 768 mmHg 89%
    02:00 +7°C° 0 mm 5 m/s 768 mmHg 89%
    03:00 +7°C° 0 mm 5 m/s 768 mmHg 89%
    04:00 +6°C° 0 mm 5 m/s 768 mmHg 89%
    05:00 +6°C° 0 mm 5 m/s 768 mmHg 89%
    06:00 +7°C° 0 mm 5 m/s 768 mmHg 85%
    07:00 +8°C° 0 mm 5 m/s 768 mmHg 81%
    08:00 +9°C° 0 mm 5 m/s 769 mmHg 77%
    09:00 +10°C° 0 mm 6 m/s 769 mmHg 70%
    10:00 +13°C° 0 mm 6 m/s 769 mmHg 63%
    11:00 +14°C° 0 mm 6 m/s 769 mmHg 57%
    12:00 +14°C° 0 mm 6 m/s 768 mmHg 57%
    13:00 +14°C° 0 mm 6 m/s 768 mmHg 58%
    14:00 +14°C° 0 mm 6 m/s 767 mmHg 58%
    15:00 +13°C° 0 mm 6 m/s 767 mmHg 63%
    16:00 +11°C° 0 mm 6 m/s 767 mmHg 67%
    17:00 +10°C° 0 mm 6 m/s 767 mmHg 71%
    18:00 +9°C° 0 mm 5 m/s 768 mmHg 76%
    19:00 +8°C° 0 mm 5 m/s 768 mmHg 82%
    20:00 +7°C° 0 mm 5 m/s 769 mmHg 87%
    21:00 +7°C° 0 mm 4 m/s 768 mmHg 88%
    22:00 +7°C° 0 mm 4 m/s 768 mmHg 89%
    23:00 +6°C° 0 mm 4 m/s 768 mmHg 91%

    27 Fevereiro, Quinta-feira

    Tempo Temperatura Precipitação Vento Pressão Humidade
    00:00 +6°C° 0 mm 4 m/s 768 mmHg 91%
    01:00 +7°C° 0 mm 3 m/s 768 mmHg 91%
    02:00 +5°C° 0 mm 3 m/s 768 mmHg 90%
    03:00 +5°C° 0 mm 3 m/s 767 mmHg 90%
    04:00 +5°C° 0 mm 3 m/s 767 mmHg 90%
    05:00 +5°C° 0 mm 3 m/s 767 mmHg 90%
    06:00 +7°C° 0 mm 2 m/s 767 mmHg 84%
    07:00 +8°C° 0 mm 2 m/s 768 mmHg 79%
    08:00 +10°C° 0 mm 2 m/s 768 mmHg 73%
    09:00 +13°C° 0 mm 2 m/s 768 mmHg 67%
    10:00 +15°C° 0 mm 2 m/s 768 mmHg 62%
    11:00 +17°C° 0 mm 2 m/s 768 mmHg 56%
    12:00 +17°C° 0 mm 3 m/s 767 mmHg 58%
    13:00 +17°C° 0 mm 3 m/s 767 mmHg 59%
    14:00 +17°C° 0 mm 4 m/s 766 mmHg 60%
    15:00 +15°C° 0 mm 4 m/s 766 mmHg 67%
    16:00 +13°C° 0 mm 4 m/s 766 mmHg 74%
    17:00 +12°C° 0 mm 3 m/s 766 mmHg 81%
    18:00 +11°C° 0 mm 3 m/s 766 mmHg 85%
    19:00 +10°C° 0 mm 3 m/s 766 mmHg 89%
    20:00 +9°C° 0 mm 3 m/s 766 mmHg 93%
    21:00 +9°C° 0 mm 3 m/s 766 mmHg 93%
    22:00 +8°C° 0 mm 2 m/s 766 mmHg 94%
    23:00 +8°C° 0 mm 2 m/s 766 mmHg 94%

    28 Fevereiro, Sexta-feira

    Tempo Temperatura Precipitação Vento Pressão Humidade
    00:00 +8°C° 0 mm 2 m/s 766 mmHg 94%
    01:00 +8°C° 0 mm 2 m/s 765 mmHg 94%
    02:00 +7°C° 0 mm 2 m/s 765 mmHg 95%
    03:00 +7°C° 0 mm 2 m/s 765 mmHg 94%
    04:00 +8°C° 0 mm 1 m/s 764 mmHg 94%
    05:00 +8°C° 0 mm 1 m/s 764 mmHg 93%
    06:00 +9°C° 0 mm 1 m/s 764 mmHg 90%
    07:00 +10°C° 0 mm 1 m/s 765 mmHg 87%
    08:00 +11°C° 0 mm 1 m/s 765 mmHg 83%
    09:00 +13°C° 0 mm 1 m/s 765 mmHg 78%
    10:00 +14°C° 0 mm 2 m/s 765 mmHg 73%
    11:00 +16°C° 0 mm 2 m/s 765 mmHg 68%
    12:00 +16°C° 0 mm 2 m/s 764 mmHg 69%
    13:00 +15°C° 0 mm 2 m/s 764 mmHg 69%
    14:00 +14°C° 0 mm 3 m/s 763 mmHg 69%
    15:00 +14°C° 0 mm 3 m/s 764 mmHg 73%
    16:00 +13°C° 0 mm 3 m/s 764 mmHg 77%
    17:00 +13°C° 0 mm 3 m/s 764 mmHg 81%
    18:00 +13°C° 0.1 mm 3 m/s 764 mmHg 83%
    19:00 +12°C° 0.1 mm 3 m/s 764 mmHg 86%
    20:00 +13°C° 0.1 mm 2 m/s 765 mmHg 89%
    21:00 +12°C° 0 mm 3 m/s 765 mmHg 91%
    22:00 +11°C° 0 mm 3 m/s 765 mmHg 92%
    23:00 +11°C° 0 mm 3 m/s 765 mmHg 94%

    29 Fevereiro, Sábado

    Tempo Temperatura Precipitação Vento Pressão Humidade
    00:00 +11°C° 0 mm 3 m/s 765 mmHg 94%
    01:00 +12°C° 0 mm 4 m/s 764 mmHg 94%
    02:00 +13°C° 0 mm 4 m/s 764 mmHg 94%
    03:00 +13°C° 0 mm 4 m/s 764 mmHg 95%
    04:00 +13°C° 0 mm 4 m/s 764 mmHg 96%
    05:00 +13°C° 0 mm 4 m/s 764 mmHg 97%
    06:00 +13°C° 0.1 mm 5 m/s 764 mmHg 95%
    07:00 +14°C° 0.1 mm 5 m/s 764 mmHg 93%
    08:00 +14°C° 0.1 mm 5 m/s 764 mmHg 92%
    09:00 +15°C° 0.3 mm 5 m/s 764 mmHg 90%
    10:00 +15°C° 0.3 mm 6 m/s 764 mmHg 88%
    11:00 +16°C° 0.3 mm 6 m/s 764 mmHg 86%
    12:00 +16°C° 0.2 mm 7 m/s 763 mmHg 87%
    13:00 +15°C° 0.2 mm 7 m/s 763 mmHg 88%
    14:00 +15°C° 0.2 mm 7 m/s 762 mmHg 89%
    15:00 +15°C° 0.2 mm 8 m/s 762 mmHg 90%
    16:00 +15°C° 0.2 mm 8 m/s 762 mmHg 91%
    17:00 +15°C° 0.2 mm 8 m/s 762 mmHg 92%
    18:00 +15°C° 0.8 mm 8 m/s 762 mmHg 92%
    19:00 +15°C° 0.8 mm 8 m/s 762 mmHg 93%
    20:00 +15°C° 0.8 mm 8 m/s 762 mmHg 93%
    21:00 +15°C° 0.6 mm 7 m/s 762 mmHg 93%
    22:00 +14°C° 0.6 mm 7 m/s 762 mmHg 93%
    23:00 +14°C° 0.6 mm 7 m/s 762 mmHg 93%
    Mostrar mais